Location: Gipe Farm
(40.9466°N, 95.5370°W)
Time: 02:53:46
(UTC-05:00)

Daily predictions for brighter satellites

Satellite Brightness Start Highest point End
(mag) Time Altitude Azimuth Time Altitude Azimuth Time Altitude Azimuth
Iridium 4 Rocket 3.7 00:08:43 10° N 00:14:39 82° W 00:14:58 78° SW
ASTEX 1 4.4 00:12:35 10° N 00:17:11 40° WNW 00:17:44 38° W
Cosmos 1892 Rocket 4.4 00:15:37 10° N 00:18:47 47° N 00:18:47 47° N
Cosmos 2082 Rocket 4.2 00:18:25 10° WNW 00:21:41 16° W 00:22:40 15° WSW
Cosmos 1503 Rocket 4.2 00:22:08 10° NNW 00:26:48 68° NW 00:26:48 68° NW
CZ-4B R/B 4.4 00:30:56 13° NNE 00:30:56 13° NNE 00:31:23 10° NNE
Meteor 2-4 Rocket 3.7 00:25:00 10° NNW 00:30:11 71° WNW 00:30:11 71° WNW
Cosmos 2263 4.3 00:35:29 65° NE 00:35:29 65° NE 00:40:22 10° NNE
Lacrosse 5 rocket 3.3 00:38:52 25° NNW 00:38:52 25° NNW 00:41:21 10° NNE
Cosmos 1605 Rocket 3.9 00:38:08 79° SW 00:38:28 83° W 00:44:55 10° N
NOSS 3-1 (A) 3.9 00:31:12 10° NW 00:38:51 75° WSW 00:40:02 65° S
Cosmos 1455 Rocket 4.3 00:47:53 39° N 00:47:53 39° N 00:50:41 10° N
Cosmos 2285 Rocket 4.4 00:47:10 52° WSW 00:48:13 58° WNW 00:54:33 10° NNE
Cosmos 1934 Rocket 4.5 00:47:59 45° W 00:48:41 47° WNW 00:54:32 10° N
ALOS 2 3.7 00:52:11 42° N 00:52:11 42° N 00:55:06 10° N
Cosmos 2173 Rocket 4.4 00:54:25 51° E 00:54:25 51° E 01:00:17 10° NNE
Cosmos 2123 Rocket 4.4 00:49:47 10° NNW 00:55:49 51° W 00:56:01 51° W
Cosmos 1153 Rocket 4.4 00:57:20 86° W 00:57:22 86° W 01:03:43 10° N
Cosmos 1833 4.5 00:51:52 10° NNW 00:57:05 62° NE 00:57:05 62° NE
ATLAS 2AS CENTAUR R/B 3.2 00:52:03 10° NNW 01:00:09 66° NE 01:02:08 51° ESE
Cosmos 2369 Rocket 3.1 01:08:35 38° W 01:09:21 40° WNW 01:14:38 10° N
USA 234 4.2 01:03:57 10° NE 01:10:06 45° NNW 01:16:13 10° W
ISS 0.1 01:09:40 10° NNW 01:10:46 13° N 01:10:46 13° N
Cosmos 1818 3.9 01:15:54 62° NNW 01:15:54 62° NNW 01:20:48 10° NNE
CZ-2C R/B 3.3 01:10:39 10° NNE 01:14:39 46° NE 01:14:39 46° NE
Cosmos 2219 3.7 01:17:53 10° NNW 01:23:14 53° NE 01:23:14 53° NE
Cosmos 1066 Rocket 4.5 01:20:57 10° N 01:25:30 61° NNE 01:25:30 61° NNE
Cosmos 1656 Rocket 4.2 01:30:55 51° ENE 01:30:55 51° ENE 01:35:22 10° NNE
H-2A R/B 4.1 01:31:07 10° N 01:34:17 34° NW 01:34:17 34° NW
GP-B 4.5 01:36:32 10° N 01:39:19 36° NNW 01:39:19 36° NNW
Cosmos 1943 Rocket 2.7 01:41:12 51° NW 01:41:12 51° NW 01:46:28 10° NNE
MOS 1-B Rocket 4.3 01:42:38 56° W 01:42:38 56° W 01:49:02 10° NNW
Lacrosse 5 4.2 01:43:44 10° WNW 01:47:37 21° NNW 01:51:29 10° NNE
SL-08 R/B 4.4 01:49:36 86° E 01:49:36 86° E 01:55:59 10° N
ATLAS CENTAUR R/B 4.3 01:53:11 12° E 01:53:11 12° E 01:54:07 10° ENE
Cosmos 44 Rocket 4.4 01:46:49 10° NW 01:50:05 39° NW 01:50:05 39° NW
SeaSat 1 3.7 01:58:00 33° ENE 01:58:42 35° NE 02:03:09 10° N
Cosmos 2233 Rocket 4.0 02:16:30 69° ESE 02:16:37 69° E 02:22:43 10° NNE
Meteor 2-17 Rocket 4.5 02:18:31 67° ESE 02:18:41 67° E 02:24:45 10° NNE
Cosmos 44 4.1 02:17:46 10° NNW 02:21:29 47° NW 02:21:29 47° NW
BREEZE-M DEB (TANK) 4.0 02:21:35 10° WNW 02:26:09 77° SSW 02:46:11 10° SE
NOSS 3-3 (A) 4.2 02:28:46 55° W 02:29:41 60° NW 02:36:22 10° NNE
NOSS 3-3 (C) 4.2 02:28:52 55° W 02:29:46 61° NW 02:36:27 10° NNE
Cosmos 1570 Rocket 4.3 02:31:21 63° NW 02:31:21 63° NW 02:36:14 10° NNE
CZ-2C R/B 4.3 02:37:05 29° WNW 02:37:05 29° WNW 02:40:01 10° NNW
SL-08 R/B 4.4 02:39:16 35° E 02:39:51 36° ENE 02:44:06 10° N
Cosmos 2228 4.0 02:42:10 44° N 02:42:10 44° N 02:45:11 10° N
ATLAS 2AS CENTAUR R/B 4.0 02:43:59 10° NW 02:49:31 28° W 02:49:31 28° W
IRS-P3 4.3 02:46:35 10° NNE 02:51:54 62° ESE 02:52:06 61° ESE
Cosmos 1697 Rocket 3.9 02:53:03 29° ESE 02:53:50 30° ESE 02:58:42 10° NE
CZ-2C R/B 4.4 02:52:01 10° NNW 02:55:40 19° WNW 02:56:10 19° WNW
ARIANE 5 R/B 4.4 02:54:14 10° NE 02:58:01 20° E 02:59:42 18° ESE
Cosmos 2082 3.6 02:53:47 10° NNW 02:59:27 82° ENE 03:00:08 69° SE
Cosmos 1980 Rocket 3.9 03:01:23 19° ESE 03:02:56 21° E 03:07:06 10° NE
ADEOS 4.4 03:03:11 10° NNE 03:08:06 40° E 03:09:06 36° SE
BREEZE-M R/B 4.1 03:01:12 10° WNW 03:08:18 87° NE 03:14:32 10° SE
Cosmos 2227 Rocket 2.0 03:03:11 10° NNW 03:08:52 79° WSW 03:09:13 75° SSW
Resurs 1-4 Rocket 4.0 03:07:26 10° NE 03:11:21 21° E 03:13:46 16° SE
BREEZE-M DEB (TANK) 4.3 03:13:42 30° SE 03:13:42 30° SE 03:17:02 10° ENE
Cosmos 2034 Rocket 4.0 03:16:44 49° SSE 03:18:28 72° E 03:24:38 10° NNE
Cosmos 1812 Rocket 3.9 03:20:36 58° NW 03:20:36 58° NW 03:24:35 10° N
Cosmos 1814 Rocket 3.9 03:19:58 70° S 03:20:33 82° ESE 03:25:57 10° NNE
CBERS-1 3.9 03:19:25 10° NNE 03:24:35 88° E 03:25:13 70° S
NPP 3.5 03:21:32 10° N 03:26:56 77° WNW 03:27:44 63° SW
Meteor 2-5 Rocket 3.7 03:22:14 10° NNW 03:28:08 77° W 03:29:26 56° SSW
Cosmos 2278 4.1 03:27:34 46° W 03:28:31 50° WNW 03:34:03 10° NNE
Cosmos 2298 Rocket 4.0 03:23:44 10° NNW 03:28:55 59° WSW 03:28:55 59° WSW
ATLAS CENTAUR R/B 1.7 03:29:31 69° WSW 03:29:58 75° WNW 03:35:00 10° NNE
Cosmos 2297 Rocket 2.0 03:24:20 10° NNW 03:29:59 75° WSW 03:31:06 57° S
Cosmos 2369 3.9 03:29:36 49° W 03:30:34 55° WNW 03:36:09 10° NNE
SL-16 R/B 3.3 03:27:44 10° SE 03:33:36 49° ENE 03:39:29 10° N
SeaSat 1 3.7 03:37:47 26° WNW 03:37:47 26° WNW 03:40:36 10° NW
Cosmos 1378 4.2 03:33:27 10° N 03:37:04 42° ENE 03:37:47 37° ESE
Cosmos 405 Rocket 3.6 03:35:06 10° NNW 03:38:05 40° NW 03:38:05 40° NW
Cosmos 990 Rocket 4.0 03:36:03 10° NNW 03:41:20 82° ENE 03:43:42 34° SSE
NOSS 2-1 (D) 4.1 03:42:49 42° WNW 03:43:06 43° NW 03:47:23 10° NNE
NOSS 2-1 (C) 4.1 03:44:12 42° WNW 03:44:30 43° NW 03:48:48 10° NNE
Cosmos 468 Rocket 4.2 03:43:46 47° W 03:44:35 52° WNW 03:49:37 10° N
AQUA 4.0 03:42:31 10° N 03:47:11 55° WNW 03:47:46 51° WSW
GPS 2-04 Rocket1 4.3 03:50:41 24° SE 03:50:41 24° SE 03:52:35 10° ESE
SL-16 R/B 4.3 03:45:47 10° SE 03:49:38 19° E 03:53:30 10° ENE
Cosmos 1766 3.2 03:49:54 71° SE 03:50:13 77° E 03:54:10 10° N
ERS-2 2.1 03:47:34 10° N 03:51:12 71° WNW 03:51:12 71° WNW
Meteor 2-12 Rocket 4.3 03:56:12 38° SSW 03:58:41 82° W 04:04:46 10° N
NOSS 2-1 (E) 4.5 03:58:52 31° WNW 03:59:43 34° NW 04:03:59 10° NNE
Okean 3 Rocket 4.0 03:57:07 10° NNW 04:01:15 42° W 04:01:15 42° W
Cosmos 1634 Rocket 4.4 03:59:33 21° SSE 04:03:47 62° E 04:10:00 10° NNE
Meteor 1-24 Rocket 3.8 04:00:20 10° NNW 04:06:01 63° W 04:08:39 33° SSW
UNKNOWN OBJECT B 3.9 04:02:37 10° NNE 04:06:17 38° E 04:07:58 25° SSE
Cosmos 1656 4.1 04:05:09 35° WSW 04:07:05 50° WNW 04:12:36 10° NNE
Meteor 1-22 Rocket 4.4 04:05:37 36° SSW 04:08:07 67° W 04:14:14 10° N
SL-24 R/B 4.2 04:07:17 33° S 04:09:27 76° WSW 04:13:58 10° NNW
Cosmos 1437 4.2 04:07:52 10° N 04:11:01 37° ENE 04:13:16 16° SE
Cosmos 1441 Rocket 3.2 04:08:28 10° NNW 04:12:28 76° W 04:13:34 46° S
Milstar 3 Cent rocket 3.4 04:13:36 24° S 04:13:57 24° S 04:19:20 10° ESE
NOSS 3-4 (A) 3.9 04:07:22 10° NW 04:14:11 53° WSW 04:21:21 10° SSE
NOSS 3-4 (C) 3.9 04:07:28 10° NW 04:14:19 54° WSW 04:21:32 10° SSE
SME Rocket 4.2 04:10:49 22° S 04:14:46 73° WSW 04:23:30 10° NNW
Cosmos 841 Rocket 3.6 04:13:08 38° SW 04:15:06 66° WNW 04:20:22 10° NNE
CZ-2D R/B 2.2 04:10:28 10° NNE 04:15:57 81° ESE 04:19:03 27° S
Cosmos 1092 Rocket 3.9 04:10:01 10° N 04:16:20 81° W 04:21:15 18° S
Cosmos 1076 Rocket 3.5 04:12:44 10° NNW 04:17:00 62° W 04:18:17 41° SSW
EO 1 Del DPAF 3.3 04:15:01 25° SSE 04:17:11 76° ENE 04:21:05 10° N
Cosmos 1125 Rocket 3.7 04:12:19 10° NNW 04:17:33 71° ENE 04:22:43 10° SSE
Cosmos 1805 3.4 04:17:45 34° S 04:19:20 71° E 04:23:14 10° NNE
Cosmos 1763 Rocket 3.8 04:18:14 34° WSW 04:20:09 52° WNW 04:25:14 10° N
Cosmos 1707 4.5 04:17:14 10° NW 04:19:23 19° WNW 04:19:23 19° WNW
Cosmos 1937 Rocket 4.2 04:16:16 10° NW 04:20:46 31° W 04:21:16 30° WSW
Cosmos 2227 4.4 04:15:35 10° NNW 04:21:22 76° ENE 04:27:07 10° SSE
Cosmos 1758 3.3 04:19:49 36° S 04:21:24 83° E 04:25:26 10° N
UNK 3.7 04:20:12 25° S 04:22:58 74° WSW 04:27:39 10° NNW
Cosmos 1544 4.0 04:21:58 21° SSE 04:24:06 44° E 04:27:36 10° NNE
Cosmos 1953 2.2 04:23:35 36° S 04:25:11 86° W 04:29:17 10° N
Cosmos 1500 Rocket 4.4 04:23:32 10° N 04:27:48 49° E 04:32:01 10° SSE
USA 161 3.4 04:29:34 18° NW 04:29:34 18° NW 04:30:42 10° NW
In-Cosmos 22 4.0 04:27:51 10° NNW 04:33:09 77° W 04:38:04 12° S
Cosmos 1743 Rocket 3.5 04:28:59 10° N 04:33:21 84° E 04:37:19 12° S
GEOS 3 Rocket 3.5 04:29:41 10° SE 04:34:55 88° SW 04:40:08 10° NW
ARIANE 5 R/B 2.9 04:32:26 10° N 04:37:21 48° WNW 04:40:02 25° SW
Cosmos 1697 Rocket 3.5 04:34:48 24° WSW 04:37:38 39° WNW 04:42:55 10° N
CZ-3 R/B 4.2 04:16:57 21° SW 04:37:44 42° S 04:46:58 10° ESE
CZ-2C R/B 4.5 04:34:31 10° SSE 04:39:05 55° ENE 04:43:36 10° N
Cosmos 540 Rocket 3.4 04:40:44 20° SSW 04:44:20 88° ESE 04:49:32 10° NNE
Cosmos-2242 3.3 04:43:21 27° SW 04:45:23 49° W 04:49:34 10° N
Okean O Rocket 2.1 04:41:57 10° NNE 04:46:19 60° E 04:50:30 11° S
Cosmos 1980 Rocket 2.5 04:43:10 23° SW 04:46:29 52° WNW 04:52:02 10° NNE
Cosmos 2360 Rocket 4.3 04:43:11 10° SSE 04:47:24 22° E 04:51:38 10° NE
Cosmos 1674 3.1 04:45:46 10° N 04:49:30 63° E 04:53:13 10° SSE
Meteor 1-21 Rocket 4.3 04:43:59 10° NNW 04:49:53 70° W 04:55:45 10° S
Resurs 1-4 Rocket 2.5 04:46:23 10° N 04:51:26 47° WNW 04:54:50 20° SW
Abrixas 2.5 04:49:12 16° WNW 04:51:29 53° SW 04:54:28 10° SE
MOS 1-B 4.4 04:47:50 10° N 04:53:35 63° WNW 04:58:12 16° SSW
Cosmos 2279 Rocket 4.0 04:50:23 10° S 04:56:39 88° W 05:02:56 10° N
Cosmos 2322 Rocket 2.3 04:54:04 14° SSW 04:58:57 79° ESE 05:04:35 10° NNE
RESURS DK-1 2.2 04:59:23 10° NNW 05:03:31 73° WSW 05:07:37 10° SSE
Thor Agena Rocket 3.8 05:00:14 10° SSE 05:05:14 69° ENE 05:10:16 10° N
Aureole 1 Rocket 4.2 05:00:31 13° SSW 05:05:54 83° WNW 05:13:38 10° NNE
ATLAS CENTAUR R/B 4.1 05:07:10 10° WNW 05:09:55 14° NW 05:12:38 10° N
Cosmos 1538 Rocket 4.3 05:07:38 10° S 05:12:51 71° ESE 05:18:11 10° NNE
Cosmos 1470 2.9 05:13:25 11° SSW 05:17:05 57° W 05:21:01 10° N
SL-16 R/B 3.5 05:12:48 12° SSW 05:17:26 26° W 05:22:31 10° NW
Cosmos 1842 Rocket 4.1 05:16:21 12° SSW 05:20:14 43° WNW 05:24:31 10° N
CZ-2D R/B 4.3 05:16:26 10° N 05:20:28 38° WNW 05:24:19 11° SW
Cosmos 2266 Rocket 4.4 05:17:26 10° N 05:23:35 68° E 05:29:48 10° SSE
Cosmos 1655 Rocket 4.4 05:17:43 10° NNW 05:23:47 46° W 05:29:49 10° SSW
MOZ.5/SAFIR/RUBIN 5/SL-8 3.9 05:20:01 10° S 05:24:38 56° W 05:29:15 10° NNW
PSLV R/B 4.2 05:21:22 10° N 05:25:03 44° WNW 05:28:37 10° SW
Cosmos 1461 3.3 05:22:09 10° NW 05:25:55 35° WSW 05:29:31 10° S
GPS 2-04 Rocket1 3.8 05:25:18 11° WSW 05:28:20 25° SSW 05:31:32 10° SE
Cosmos 1805 Rocket 4.1 05:24:41 10° N 05:29:00 61° E 05:33:19 10° SSE
DELTA 2 R/B (2) 3.6 05:29:01 11° W 05:31:10 40° S 05:32:54 10° ESE
Cosmos 967 Rocket 4.5 05:25:33 10° NW 05:31:54 71° WSW 05:38:08 10° SSE
SL-16 R/B 2.4 05:27:37 10° SW 05:33:12 59° WNW 05:38:49 10° NNE
Okean-O 3.1 05:29:03 10° NNE 05:33:28 64° ESE 05:37:52 10° S
ARGOS Delta rocket 4.0 05:29:40 10° N 05:34:42 63° WNW 05:39:26 10° SSW
Lacrosse 5 rocket 3.9 05:37:13 10° NNW 05:40:02 20° NNE 05:42:51 10° E
CZ-4B R/B 3.2 05:38:18 10° N 05:42:03 45° WNW 05:45:37 10° SW
Sich 1 3.9 05:38:05 10° N 05:42:19 54° E 05:46:34 10° SSE
CZ-3A R/B 4.1 05:35:24 10° W 05:43:39 33° NW 05:47:36 10° NE
Cosmos 2263 Rocket 2.2 05:39:42 10° NNW 05:45:18 83° WSW 05:50:51 10° SSE
